Regional Weather Roundup
Issued by NWS

Home | Current Version | Previous Version | Graphics & Text | Print | Product List | Glossary On
Versions: 1 2 3 4 5 6 7 8 9 10 11 12 13 14 15 16 17 18 19 20 21 22 23 24 25 26 27 28 29 30 31 32 33 34 35 36 37 38 39 40 41 42 43 44 45 46 47 48 49 50
467
ASUS43 KMPX 201610
RWRMN
WEATHER ROUNDUP FOR MINNESOTA
NATIONAL WEATHER SERVICE TWIN CITIES/CHANHASSEN MN
1100 AM CDT FRI APR 20 2018


NOTE: "FAIR" INDICATES FEW OR NO CLOUDS BELOW 12,000 FEET WITH NO
SIGNIFICANT WEATHER AND/OR OBSTRUCTIONS TO VISIBILITY. N/A MEANS
CURRENT SKY AND/OR WEATHER CONDITIONS ARE NOT AVAILABLE.

MNZ060>063-068>070-201700-
   Twin Cities Metro

CITY           SKY/WX    TMP DP  RH WIND       PRES   REMARKS
TWIN CITIES    PTSUNNY   45  22  40 CALM      30.51S
ST PAUL        FAIR      45  21  38 CALM      30.52S
CRYSTAL        FAIR      46  20  35 CALM      30.50S
BLAINE         PTSUNNY   46  18  31 CALM      30.49S
LAKEVILLE      FAIR      41  25  52 CALM      30.51R
EDEN PRAIRIE   FAIR      44  24  45 S5        30.50S
SOUTH ST PAUL  FAIR      45  24  45 CALM      30.51S
LAKE ELMO      FAIR      43  23  45 CALM      30.51S
$$
MNZ001>005-007-008-013>017-022>024-027-028-201700-
   Northwest Minnesota

CITY           SKY/WX    TMP DP  RH WIND       PRES   REMARKS
BEMIDJI        FAIR      51  31  46 S5        30.42S
HALLOCK        FAIR      50  39  66 S8        30.40F
ROSEAU         FAIR      50  36  57 SW5       30.41S
WARROAD        FAIR      52  30  43 SW5       30.42R
THIEF RVR FALL FAIR      48  27  44 W8        30.43S
CROOKSTON      FAIR      46  34  61 SW7       30.44R
FOSSTON        FAIR      48  25  40 SW8       30.43S
DETROIT LAKES  FAIR      50  21  32 SW5       30.44S
MOORHEAD       FAIR      46  34  61 S8        30.45R
PARK RAPIDS    FAIR      49  30  48 CALM      30.43F
MAHNOMEN       FAIR      48  24  38 W6        30.43S
$$
MNZ006-009>011-018-025>026-201700-
   North Central Minnesota

CITY           SKY/WX    TMP DP  RH WIND       PRES   REMARKS
BAUDETTE       FAIR      51  30  44 CALM      30.41F
FLAG ISLAND    FAIR      37  28  70 SE6       30.40S
INTL FALLS     FAIR      52  25  35 VRB3      30.42S
WASKISH        PTSUNNY   48  32  53 CALM      30.42F
BIG FORK       FAIR      54  25  32 CALM      30.42S
LONGVILLE      FAIR      52  27  37 W3        30.43F
GRAND RAPIDS   FAIR      48  28  46 CALM      30.45F
CRANE LAKE     FAIR      50  16  25 CALM      30.44F
ORR            FAIR      52  16  24 CALM      30.40F
COOK           FAIR      50  21  32 CALM      30.43S
WALKER         FAIR      49  31  50 E3        30.43S
$$
MNZ012-019>021-037-201700-
   Northeast Minnesota

CITY           SKY/WX    TMP DP  RH WIND       PRES   REMARKS
DULUTH         FAIR      51  25  36 W6        30.43F
ELY            FAIR      48  12  23 CALM      30.42S
HIBBING        FAIR      50  19  29 CALM      30.42F
EVELETH        FAIR      50  23  34 CALM      30.43F
DULUTH HARBOR  FAIR      52  32  46 S3        30.46S
TWO HARBORS    FAIR      61  28  29 SW9       30.41F
SILVER BAY     FAIR      55  23  28 S8        30.41S
GRAND MARAIS     N/A     40  27  59 SW8       30.44S
G MARAIS ARPRT FAIR      52   9  17 S3        30.42S
$$
MNZ029>031-032-039>041-046>048-054>057-064-201700-
   West Central Minnesota

CITY           SKY/WX    TMP DP  RH WIND       PRES   REMARKS
FERGUS FALLS   FAIR      46  28  49 S10       30.44S
WHEATON        MOSUNNY   43  28  56 SE8       30.46F
MORRIS         CLOUDY    43  30  61 SE7       30.46S
ALEXANDRIA     FAIR      47  22  37 S9        30.47R
ELBOW LAKE     FAIR      44  26  49 S9        30.47S
WADENA         FAIR      46  27  46 SE3       30.44S
GLENWOOD       FAIR      45  21  39 S8        30.48R
APPLETON       MOSUNNY   43  25  49 SE6       30.47S
BENSON         MOSUNNY   45  25  45 SW8       30.49S
ORTONVILLE     CLOUDY    43  28  56 SE7       30.45F
MADISON        CLOUDY    39  28  65 SE7       30.46S
WILLMAR        FAIR      41  28  60 S3        30.51S
$$
MNZ033>034-036-042>043-049>051-058-059-201700-
   Central Minnesota

CITY           SKY/WX    TMP DP  RH WIND       PRES   REMARKS
ST CLOUD       FAIR      44  23  43 S6        30.49R
SAUK CENTRE    FAIR      43  23  44 S7        30.48S
PAYNESVILLE    FAIR      43  25  48 S7        30.49S
AITKIN         FAIR      48  28  46 CALM      30.44S
PINE RIVER     FAIR      46  28  49 CALM      30.46F
BRAINERD       FAIR      49  28  44 CALM      30.46S
STAPLES        FAIR      46  25  42 NW3       30.45F
LONG PRAIRIE   FAIR      45  23  42 CALM      30.47S
LITTLE FALLS   FAIR      45  12  26 CALM      30.48S
LITCHFIELD     FAIR      43  21  42 SW5       30.50R
BUFFALO        FAIR      42  24  48 CALM      30.52R
MAPLE LAKE     FAIR      44  23  42 S5        30.52R
HUTCHINSON     FAIR      40  28  60 SE3       30.51S
$$
MNZ037-044-045-052-053-201700-
   East Central Minnesota

CITY           SKY/WX    TMP DP  RH WIND       PRES   REMARKS
PRINCETON      FAIR      50  19  29 S3        30.49S
MORA           FAIR      45  23  42 SW3       30.49F
CAMBRIDGE      FAIR      48  28  46 SW6       30.50R
RUSH CITY      FAIR      46  23  39 CALM      30.49S
MOOSE LAKE     FAIR      50  28  43 NW3       30.44F
HINCKLEY       FAIR      48  30  49 S3        30.48S
CLOQUET        FAIR      52  19  28 S6        30.44S
MCGREGOR       FAIR      52  30  43 CALM      30.45F
$$
MNZ071>073-080-081-089-090-097-098-201700-
   Southwest Minnesota

CITY           SKY/WX    TMP DP  RH WIND       PRES   REMARKS
MONTEVIDEO     MOSUNNY   43  21  42 S7        30.48S
GRANITE FALLS  MOSUNNY   39  27  62 SE9       30.50S
CANBY          CLOUDY    38  27  63 E5        30.46F
REDWOOD FALLS  PTSUNNY   35  25  66 SE10      30.50R WCI  27
OLIVIA         MOSUNNY   39  27  60 S9        30.49S
PIPESTONE      CLOUDY   N/A N/A N/A S7        30.42F
WINDOM         CLOUDY    37  18  44 SE5       30.47S
WORTHINGTON    CLOUDY    38  26  62 S9        30.45S
JACKSON        PTSUNNY   34  25  69 E8        30.47S WCI  27
TRACY          MOSUNNY   40  28  62 S8        30.45F
SLAYTON        CLOUDY    37  30  73 S10       30.46S
$$
MNZ065>067-074>077-082>085-091>093-201700-
   South Central Minnesota

CITY           SKY/WX    TMP DP  RH WIND       PRES   REMARKS
MANKATO        FAIR      39  26  59 SE7       30.51S
NEW ULM        CLOUDY    36  23  60 S7        30.51S
ST JAMES       CLOUDY    34  25  69 SE7       30.52R WCI  28
FAIRMONT       CLOUDY    32  23  69 SE6       30.50S WCI  26
GLENCOE        FAIR      39  28  62 CALM      30.50S
OWATONNA       FAIR      43  27  52 SE7       30.51R
WASECA         FAIR      39  28  65 SE5       30.51F
ALBERT LEA     FAIR      39  19  45 E6        30.50S
$$
MNZ078>079-086>088-094>096-201700-
   Southeast Minnesota

CITY           SKY/WX    TMP DP  RH WIND       PRES   REMARKS
ROCHESTER      FAIR      41  30  65 SE3       30.51S
RED WING       FAIR      45  25  45 W3        30.51S
STANTON        FAIR      40  32  71 CALM      30.50S
DODGE CENTER   FAIR      41  30  65 CALM      30.50S
WINONA         FAIR      43  30  61 CALM      30.50F
AUSTIN         FAIR      39  23  52 SE5       30.51R
PRESTON        FAIR      42  22  45 E3        30.51F
$$
ABBREVIATIONS USED IN REMARKS
   TC - TEMPERATURES IN CELSIUS
  WCI - WIND CHILL INDEX
   HX - HEAT INDEX
  VSB - VISIBILITY
$$




USA.gov is the U.S. government's official web portal to all federal, state and local government web resources and services.